Torna al catalogo

STARLINK-36277

AttivoComunicazioniSSO
NORAD 68305·PAYLOAD·🇺🇸 United States

Lanciato Mar 20, 2026 da Vandenberg Space Force Base

Loading…

Prossimi Passaggi (prossime 24 ore)

TLE

AggiornatoSource: CelesTrak SupGP

Epoca: Sep 15, 2026, 03:00 UTC

1 68305C 26057M   26258.12548611 -.00007966  00000+0 -24728-3 0  2586
2 68305  97.2853  22.6040 0001020  97.5073 301.2204 15.33444173    14

Traccia STARLINK-36277 in tempo reale con AllMySat

Download on the App Store